# Tabular Observed and Forecast Hydrograph Information
#
# Location: Walker River - Wabuska (WALN2)
#
# File Generation Time: 09/04/2026 at 07:47 AM PDT
# Data Interval: 1 Hour
#
# Most Recent Date & Time of Maximum Observed: 09/03/2026 at 02:00 PM PDT
# Maximum Observed Stage: 3.40 Feet
# Maximum Observed Flow: 46 cfs
#
# Earliest Date & Time of Maximum Forecast: 09/08/2026 at 06:00 PM PDT
# Maximum Forecast Stage: 3.56 Feet
# Maximum Forecast Flow: 56 cfs
#
# OBSERVED
#
# Date & Time (Local) Stage (Feet) Flow (cfs) Trend Observed Status
# ---------------------------------------------------------------------------------
08/30/2026 07 AM PDT 3.19 33 Normal
08/30/2026 08 AM PDT 3.19 33 0 Normal
08/30/2026 09 AM PDT 3.20 34 + Normal
08/30/2026 10 AM PDT 3.20 34 0 Normal
08/30/2026 11 AM PDT 3.20 34 0 Normal
08/30/2026 12 PM PDT 3.21 35 + Normal
08/30/2026 01 PM PDT 3.20 34 - Normal
08/30/2026 02 PM PDT 3.19 33 - Normal
08/30/2026 03 PM PDT 3.19 33 0 Normal
08/30/2026 04 PM PDT 3.18 33 - Normal
08/30/2026 05 PM PDT 3.18 33 0 Normal
08/30/2026 06 PM PDT 3.17 32 - Normal
08/30/2026 07 PM PDT 3.17 32 0 Normal
08/30/2026 08 PM PDT 3.16 32 - Normal
08/30/2026 09 PM PDT 3.17 32 + Normal
08/30/2026 10 PM PDT 3.19 33 + Normal
08/30/2026 11 PM PDT 3.20 34 + Normal
08/31/2026 12 AM PDT 3.21 35 + Normal
08/31/2026 01 AM PDT 3.22 35 + Normal
08/31/2026 02 AM PDT 3.23 36 + Normal
08/31/2026 03 AM PDT 3.23 36 0 Normal
08/31/2026 04 AM PDT 3.24 36 + Normal
08/31/2026 05 AM PDT 3.24 36 0 Normal
08/31/2026 06 AM PDT 3.25 37 + Normal
08/31/2026 07 AM PDT 3.26 37 + Normal
08/31/2026 08 AM PDT 3.27 38 + Normal
08/31/2026 09 AM PDT 3.26 37 - Normal
08/31/2026 10 AM PDT 3.26 37 0 Normal
08/31/2026 11 AM PDT 3.27 38 + Normal
08/31/2026 12 PM PDT 3.27 38 0 Normal
08/31/2026 01 PM PDT 3.26 37 - Normal
08/31/2026 02 PM PDT 3.26 37 0 Normal
08/31/2026 03 PM PDT 3.24 36 - Normal
08/31/2026 04 PM PDT 3.24 36 0 Normal
08/31/2026 05 PM PDT 3.23 36 - Normal
08/31/2026 06 PM PDT 3.21 35 - Normal
08/31/2026 07 PM PDT 3.19 33 - Normal
08/31/2026 08 PM PDT 3.19 33 0 Normal
08/31/2026 09 PM PDT 3.19 33 0 Normal
08/31/2026 10 PM PDT 3.19 33 0 Normal
08/31/2026 11 PM PDT 3.20 34 + Normal
09/01/2026 12 AM PDT 3.22 35 + Normal
09/01/2026 01 AM PDT 3.22 35 0 Normal
09/01/2026 02 AM PDT 3.23 36 + Normal
09/01/2026 03 AM PDT 3.24 36 + Normal
09/01/2026 04 AM PDT 3.25 37 + Normal
09/01/2026 05 AM PDT 3.25 37 0 Normal
09/01/2026 06 AM PDT 3.25 37 0 Normal
09/01/2026 07 AM PDT 3.26 37 + Normal
09/01/2026 08 AM PDT 3.26 37 0 Normal
09/01/2026 09 AM PDT 3.26 37 0 Normal
09/01/2026 10 AM PDT 3.26 37 0 Normal
09/01/2026 11 AM PDT 3.26 37 0 Normal
09/01/2026 12 PM PDT 3.26 37 0 Normal
09/01/2026 01 PM PDT 3.25 37 - Normal
09/01/2026 02 PM PDT 3.25 37 0 Normal
09/01/2026 03 PM PDT 3.24 36 - Normal
09/01/2026 04 PM PDT 3.23 36 - Normal
09/01/2026 05 PM PDT 3.22 35 - Normal
09/01/2026 06 PM PDT 3.21 35 - Normal
09/01/2026 07 PM PDT 3.21 35 0 Normal
09/01/2026 08 PM PDT 3.21 35 0 Normal
09/01/2026 09 PM PDT 3.21 35 0 Normal
09/01/2026 10 PM PDT 3.22 35 + Normal
09/01/2026 11 PM PDT 3.23 36 + Normal
09/02/2026 12 AM PDT 3.23 36 0 Normal
09/02/2026 01 AM PDT 3.24 36 + Normal
09/02/2026 02 AM PDT 3.24 36 0 Normal
09/02/2026 03 AM PDT 3.26 37 + Normal
09/02/2026 04 AM PDT 3.26 37 0 Normal
09/02/2026 05 AM PDT 3.27 38 + Normal
09/02/2026 06 AM PDT 3.26 37 - Normal
09/02/2026 07 AM PDT 3.27 38 + Normal
09/02/2026 08 AM PDT 3.26 37 - Normal
09/02/2026 09 AM PDT 3.26 37 0 Normal
09/02/2026 10 AM PDT 3.27 38 + Normal
09/02/2026 11 AM PDT 3.27 38 0 Normal
09/02/2026 12 PM PDT 3.28 38 + Normal
09/02/2026 01 PM PDT 3.28 38 0 Normal
09/02/2026 02 PM PDT 3.29 39 + Normal
09/02/2026 03 PM PDT 3.29 39 0 Normal
09/02/2026 04 PM PDT 3.29 39 0 Normal
09/02/2026 05 PM PDT 3.30 40 + Normal
09/02/2026 06 PM PDT 3.31 40 + Normal
09/02/2026 07 PM PDT 3.31 40 0 Normal
09/02/2026 08 PM PDT 3.31 40 0 Normal
09/02/2026 09 PM PDT 3.32 41 + Normal
09/02/2026 10 PM PDT 3.33 41 + Normal
09/02/2026 11 PM PDT 3.34 42 + Normal
09/03/2026 12 AM PDT 3.34 42 0 Normal
09/03/2026 01 AM PDT 3.35 43 + Normal
09/03/2026 02 AM PDT 3.35 43 0 Normal
09/03/2026 03 AM PDT 3.36 43 + Normal
09/03/2026 04 AM PDT 3.36 43 0 Normal
09/03/2026 05 AM PDT 3.37 44 + Normal
09/03/2026 06 AM PDT 3.38 44 + Normal
09/03/2026 07 AM PDT 3.38 44 0 Normal
09/03/2026 08 AM PDT 3.38 44 0 Normal
09/03/2026 09 AM PDT 3.39 45 + Normal
09/03/2026 10 AM PDT 3.40 46 + Normal
09/03/2026 11 AM PDT 3.40 46 0 Normal
09/03/2026 12 PM PDT 3.40 46 0 Normal
09/03/2026 01 PM PDT 3.40 46 0 Normal
09/03/2026 02 PM PDT 3.40 46 0 Normal
09/03/2026 03 PM PDT 3.39 45 - Normal
09/03/2026 04 PM PDT 3.38 44 - Normal
09/03/2026 05 PM PDT 3.38 44 0 Normal
09/03/2026 06 PM PDT 3.38 44 0 Normal
09/03/2026 07 PM PDT 3.38 44 0 Normal
09/03/2026 08 PM PDT 3.39 45 + Normal
09/03/2026 09 PM PDT 3.39 45 0 Normal
09/03/2026 10 PM PDT 3.39 45 0 Normal
09/03/2026 11 PM PDT 3.39 45 0 Normal
09/04/2026 12 AM PDT 3.39 45 0 Normal
09/04/2026 01 AM PDT 3.39 45 0 Normal
09/04/2026 02 AM PDT 3.39 45 0 Normal
09/04/2026 03 AM PDT 3.39 45 0 Normal
09/04/2026 04 AM PDT 3.39 45 0 Normal
09/04/2026 05 AM PDT 3.39 45 0 Normal
09/04/2026 06 AM PDT 3.39 45 0 Normal
09/04/2026 07 AM PDT 3.39 45 0 Normal
#
# FORECAST
#
# Date & Time (Local) Stage (Feet) Flow (cfs) Trend Forecast Status
# ---------------------------------------------------------------------------------
09/04/2026 08 AM PDT 3.39 45 Normal
09/04/2026 09 AM PDT 3.39 45 0 Normal
09/04/2026 10 AM PDT 3.39 45 0 Normal
09/04/2026 11 AM PDT 3.39 45 0 Normal
09/04/2026 12 PM PDT 3.39 45 0 Normal
09/04/2026 01 PM PDT 3.39 45 0 Normal
09/04/2026 02 PM PDT 3.39 45 0 Normal
09/04/2026 03 PM PDT 3.39 45 0 Normal
09/04/2026 04 PM PDT 3.40 46 + Normal
09/04/2026 05 PM PDT 3.40 46 0 Normal
09/04/2026 06 PM PDT 3.41 46 + Normal
09/04/2026 07 PM PDT 3.41 46 0 Normal
09/04/2026 08 PM PDT 3.42 47 + Normal
09/04/2026 09 PM PDT 3.42 47 0 Normal
09/04/2026 10 PM PDT 3.42 47 0 Normal
09/04/2026 11 PM PDT 3.43 47 + Normal
09/05/2026 12 AM PDT 3.43 47 0 Normal
09/05/2026 01 AM PDT 3.43 47 0 Normal
09/05/2026 02 AM PDT 3.43 47 0 Normal
09/05/2026 03 AM PDT 3.43 47 0 Normal
09/05/2026 04 AM PDT 3.43 47 0 Normal
09/05/2026 05 AM PDT 3.43 47 0 Normal
09/05/2026 06 AM PDT 3.43 47 0 Normal
09/05/2026 07 AM PDT 3.43 47 0 Normal
09/05/2026 08 AM PDT 3.43 47 0 Normal
09/05/2026 09 AM PDT 3.43 47 0 Normal
09/05/2026 10 AM PDT 3.43 47 0 Normal
09/05/2026 11 AM PDT 3.43 47 0 Normal
09/05/2026 12 PM PDT 3.43 47 0 Normal
09/05/2026 01 PM PDT 3.43 47 0 Normal
09/05/2026 02 PM PDT 3.43 47 0 Normal
09/05/2026 03 PM PDT 3.44 48 + Normal
09/05/2026 04 PM PDT 3.44 48 0 Normal
09/05/2026 05 PM PDT 3.44 48 0 Normal
09/05/2026 06 PM PDT 3.45 49 + Normal
09/05/2026 07 PM PDT 3.46 49 + Normal
09/05/2026 08 PM PDT 3.46 49 0 Normal
09/05/2026 09 PM PDT 3.46 49 0 Normal
09/05/2026 10 PM PDT 3.46 49 0 Normal
09/05/2026 11 PM PDT 3.46 49 0 Normal
09/06/2026 12 AM PDT 3.47 50 + Normal
09/06/2026 01 AM PDT 3.47 50 0 Normal
09/06/2026 02 AM PDT 3.47 50 0 Normal
09/06/2026 03 AM PDT 3.47 50 0 Normal
09/06/2026 04 AM PDT 3.48 51 + Normal
09/06/2026 05 AM PDT 3.48 51 0 Normal
09/06/2026 06 AM PDT 3.48 51 0 Normal
09/06/2026 07 AM PDT 3.48 51 0 Normal
09/06/2026 08 AM PDT 3.48 51 0 Normal
09/06/2026 09 AM PDT 3.49 51 + Normal
09/06/2026 10 AM PDT 3.49 51 0 Normal
09/06/2026 11 AM PDT 3.49 51 0 Normal
09/06/2026 12 PM PDT 3.49 51 0 Normal
09/06/2026 01 PM PDT 3.49 51 0 Normal
09/06/2026 02 PM PDT 3.49 51 0 Normal
09/06/2026 03 PM PDT 3.49 51 0 Normal
09/06/2026 04 PM PDT 3.50 52 + Normal
09/06/2026 05 PM PDT 3.50 52 0 Normal
09/06/2026 06 PM PDT 3.51 53 + Normal
09/06/2026 07 PM PDT 3.51 53 0 Normal
09/06/2026 08 PM PDT 3.51 53 0 Normal
09/06/2026 09 PM PDT 3.51 53 0 Normal
09/06/2026 10 PM PDT 3.51 53 0 Normal
09/06/2026 11 PM PDT 3.51 53 0 Normal
09/07/2026 12 AM PDT 3.51 53 0 Normal
09/07/2026 01 AM PDT 3.51 53 0 Normal
09/07/2026 02 AM PDT 3.51 53 0 Normal
09/07/2026 03 AM PDT 3.51 53 0 Normal
09/07/2026 04 AM PDT 3.51 53 0 Normal
09/07/2026 05 AM PDT 3.51 53 0 Normal
09/07/2026 06 AM PDT 3.52 53 + Normal
09/07/2026 07 AM PDT 3.52 53 0 Normal
09/07/2026 08 AM PDT 3.52 53 0 Normal
09/07/2026 09 AM PDT 3.52 53 0 Normal
09/07/2026 10 AM PDT 3.52 53 0 Normal
09/07/2026 11 AM PDT 3.52 53 0 Normal
09/07/2026 12 PM PDT 3.52 53 0 Normal
09/07/2026 01 PM PDT 3.52 53 0 Normal
09/07/2026 02 PM PDT 3.52 53 0 Normal
09/07/2026 03 PM PDT 3.52 53 0 Normal
09/07/2026 04 PM PDT 3.52 53 0 Normal
09/07/2026 05 PM PDT 3.52 53 0 Normal
09/07/2026 06 PM PDT 3.53 54 + Normal
09/07/2026 07 PM PDT 3.53 54 0 Normal
09/07/2026 08 PM PDT 3.53 54 0 Normal
09/07/2026 09 PM PDT 3.53 54 0 Normal
09/07/2026 10 PM PDT 3.53 54 0 Normal
09/07/2026 11 PM PDT 3.53 54 0 Normal
09/08/2026 12 AM PDT 3.53 54 0 Normal
09/08/2026 01 AM PDT 3.53 54 0 Normal
09/08/2026 02 AM PDT 3.53 54 0 Normal
09/08/2026 03 AM PDT 3.53 54 0 Normal
09/08/2026 04 AM PDT 3.54 55 + Normal
09/08/2026 05 AM PDT 3.54 55 0 Normal
09/08/2026 06 AM PDT 3.54 55 0 Normal
09/08/2026 07 AM PDT 3.54 55 0 Normal
09/08/2026 08 AM PDT 3.54 55 0 Normal
09/08/2026 09 AM PDT 3.54 55 0 Normal
09/08/2026 10 AM PDT 3.54 55 0 Normal
09/08/2026 11 AM PDT 3.54 55 0 Normal
09/08/2026 12 PM PDT 3.54 55 0 Normal
09/08/2026 01 PM PDT 3.54 55 0 Normal
09/08/2026 02 PM PDT 3.54 55 0 Normal
09/08/2026 03 PM PDT 3.54 55 0 Normal
09/08/2026 04 PM PDT 3.54 55 0 Normal
09/08/2026 05 PM PDT 3.54 55 0 Normal
09/08/2026 06 PM PDT 3.56 56 + Normal
09/08/2026 07 PM PDT 3.56 56 0 Normal
09/08/2026 08 PM PDT 3.56 56 0 Normal
09/08/2026 09 PM PDT 3.56 56 0 Normal
09/08/2026 10 PM PDT 3.56 56 0 Normal
09/08/2026 11 PM PDT 3.56 56 0 Normal
09/09/2026 12 AM PDT 3.56 56 0 Normal
09/09/2026 01 AM PDT 3.56 56 0 Normal
09/09/2026 02 AM PDT 3.56 56 0 Normal
09/09/2026 03 AM PDT 3.56 56 0 Normal
09/09/2026 04 AM PDT 3.56 56 0 Normal
09/09/2026 05 AM PDT 3.56 56 0 Normal
#
# NOTE 1: Stages are rounded to the nearest hundredth (.01) of a foot.
# NOTE 2: Flows are rounded to the nearest (1) cfs.
# NOTE 3: Trends are determined using hourly change in unrounded stage and flow.
# NOTE 4: Maximum Values are determined using unrounded stage and flow.
|